Regional Weather Roundup
Issued by NWS

Home | Current Version | Previous Version | Graphics & Text | Print | Product List | Glossary On
Versions: 1 2 3 4 5 6 7 8 9 10 11 12 13 14 15 16 17 18 19 20 21 22 23 24 25 26 27 28 29 30 31 32 33 34 35 36 37 38 39 40 41 42 43 44 45 46 47 48 49 50
000
ASUS43 KBIS 241520
RWRND

NORTH DAKOTA REGIONAL WEATHER ROUNDUP
NATIONAL WEATHER SERVICE BISMARCK ND
1000 AM CDT FRI OCT 24 2014

NOTE: "FAIR" INDICATES FEW OR NO CLOUDS BELOW 12,000 FEET WITH NO
SIGNIFICANT WEATHER AND/OR OBSTRUCTIONS TO VISIBILITY.


NDZ001>003-009>011-017-241600-
NORTHWEST NORTH DAKOTA

CITY           SKY/WX    TMP DP  RH WIND       PRES   REMARKS
WILLISTON      MOSUNNY   47  38  71 CALM      29.90R
MINOT          PTSUNNY   57  37  47 W16       29.81R
MINOT AFB      PTSUNNY   56  40  54 W17       29.80R
$$

NDZ018>021-031>035-040>046-241600-
SOUTHWEST NORTH DAKOTA

CITY           SKY/WX    TMP DP  RH WIND       PRES   REMARKS
BISMARCK       PTSUNNY   48  35  60 CALM      29.88R
DICKINSON      SUNNY     52  36  54 W13       29.91R
GARRISON         N/A     49  42  77 W6        29.85R
HETTINGER ARPT SUNNY     51  34  52 W9        29.95R
$$

NDZ004>008-012>016-024-026-027-054-241600-
NORTHEAST NORTH DAKOTA

CITY           SKY/WX    TMP DP  RH WIND       PRES   REMARKS
GRAND FORKS    MOSUNNY   55  40  56 W9        29.76R
GRND FRKS AFB  MOSUNNY   59  39  47 W9        29.77R
DEVILS LAKE    SUNNY     55  39  54 W12       29.77S
$$

NDZ022-023-025-028>030-036>039-047>053-241600-
SOUTHEAST NORTH DAKOTA

CITY           SKY/WX    TMP DP  RH WIND       PRES   REMARKS
FARGO          PTSUNNY   49  42  77 S9        29.81S
JAMESTOWN      PTSUNNY   51  38  60 W3        29.82S
$$




USA.gov is the U.S. government's official web portal to all federal, state and local government web resources and services.